Location: Jackson Park
(37.2862°N, 79.9123°W)
Time: 14:26:52
(UTC+00:00)

S-56A Canister/Altair - Pass Details

Date: 14 May 2026
Orbit: 633 x 2484 km, 38.9° (Epoch: 6 June)

Event Time Altitude Azimuth Distance (km) Brightness Sun altitude
Rises 00:53:40 0° 222° (SW) 3,216 10.9 -6.8°
Reaches altitude 10° 00:56:30 10° 211° (SSW) 2,143 9.9 -7.3°
Maximum altitude 01:00:34 29° 151° (SSE) 1,169 8.0 -8.0°
Drops below altitude 10° 01:04:25 10° 90° (E) 2,016 9.2 -8.6°
Enters shadow 01:05:37 - 84° (E) 2,454 9.7 -8.8°
Sets 01:07:00 0° 79° (E) 2,988 - -9.1°
